This demonstration page uses our WeatherBlox Daily Observations layout. Learn more.

Left ArrowRight Arrow

39.01783, -85.05884

Hourly Observations for October 29, 2020

Temp ( °F °C ) Dew Point ( °F °C ) Humidity (%) Winds ( mph kmh ) Pressure ( in mb ) Visibility ( mi km ) Precip ( " mm )
12:07 am 00:07 Cloudy with Rain 52 11.1 50 10 93 93 NE 8 13 29.88 1012 3 5 0.02 0.51
12:23 am 00:23 Cloudy with Light Rain 52 11.1 50 10 93 93 ENE 6 9 29.88 1012 4 6 0.05 1.27
12:26 am 00:26 Cloudy with Light Rain 52 11.1 50 10 93 93 NE 7 11 29.88 1012 4 6 0.05 1.27
12:52 am 00:52 Cloudy with Light Rain 52 11.1 50 10 93 93 E 8 13 29.85 1011 4 6 0.07 1.78
1:11 am 01:11 Cloudy with Light Rain 52 11.1 50 10 93 93 ENE 9 15 29.85 1011 4 6 0.00 0.00
1:35 am 01:35 Cloudy with Light Rain 53 11.7 50 10 89 89 ENE 10 17 29.82 1010 3 5 0.02 0.51
1:52 am 01:52 Cloudy with Light Rain 53 11.7 51 10.6 93 93 ENE 8 13 29.80 1009 4 6 0.04 1.02
2:06 am 02:06 Cloudy with Light Rain 53 11.7 51 10.6 93 93 ENE 8 13 29.81 1010 3 5 0.01 0.25
2:52 am 02:52 Cloudy with Rain 53 11.7 51 10.6 93 93 ENE 8 13 29.79 1009 3 5 0.07 1.78
3:52 am 03:52 Cloudy with Rain 53 11.7 51 10.6 93 93 ENE 13 20 29.73 1007 3 5 0.12 3.05
4:40 am 04:40 Mostly Cloudy with Heavy Rain 53 11.7 51 10.6 93 93 NE 15 24 29.67 1005 2 3 0.06 1.52
4:52 am 04:52 Cloudy with Heavy Rain 53 11.7 51 10.6 93 93 ENE 14 22 29.66 1004 2 3 0.11 2.79
5:23 am 05:23 Cloudy with Rain 54 12.2 52 11.1 93 93 NE 9 15 29.66 1005 3 5 0.18 4.57
5:33 am 05:33 Cloudy with Rain 54 12.2 52 11.1 93 93 NE 5 7 29.67 1005 1 2 0.20 5.08
5:52 am 05:52 Cloudy with Rain 54 12.2 52 11.1 93 93 N 7 11 29.66 1004 1 2 0.29 7.37
6:28 am 06:28 Cloudy with Rain 54 12.2 52 11.1 93 93 N 14 22 29.65 1004 1 2 0.12 3.05
6:44 am 06:44 Cloudy with Heavy Rain 54 12.2 52 11.1 93 93 N 10 17 29.66 1005 2 3 0.17 4.32
6:52 am 06:52 Cloudy with Rain 54 12.2 52 11.1 93 93 NNE 13 20 29.64 1004 2 3 0.21 5.33
7:52 am 07:52 Cloudy with Light Rain 53 11.7 50 10 89 89 NNE 14 22 29.62 1003 2 3 0.18 4.57
8:08 am 08:08 Cloudy with Light Rain 52 11.1 50 10 93 93 NNE 16 26 29.63 1003 2 3 0.03 0.76
8:52 am 08:52 Cloudy with Rain 51 10.6 49 9.4 92 92 NNE 18 30 29.62 1003 2 3 0.16 4.06
9:52 am 09:52 Cloudy with Heavy Rain 51 10.6 48 8.9 89 89 NNE 14 22 29.63 1003 2 3 0.19 4.83
10:52 am 10:52 Cloudy with Rain 50 10 47 8.3 89 89 N 22 35 29.63 1003 3 5 0.21 5.33
11:52 am 11:52 Cloudy with Light Rain 50 10 47 8.3 89 89 NNE 12 19 29.63 1003 5 8 0.17 4.32
12:52 pm 12:52 Cloudy with Light Rain 49 9.4 46 7.8 90 90 NNE 17 28 29.62 1003 7 11 0.01 0.25
1:52 pm 13:52 Cloudy 48 8.9 45 7.2 89 89 N 17 28 29.63 1003 10 16 0.00 0.00
2:52 pm 14:52 Cloudy 48 8.9 45 7.2 89 89 NNE 18 30 29.61 1003 10 16 0.00 0.00
3:52 pm 15:52 Cloudy with Drizzle 49 9.4 45 7.2 86 86 NNE 15 24 29.62 1003 8 13 0.00 0.00
4:03 pm 16:03 Cloudy with Drizzle 48 8.9 45 7.2 89 89 N 15 24 29.66 1005 3 4 0.00 0.00
4:11 pm 16:11 Cloudy with Light Rain 48 8.9 45 7.2 89 89 N 14 22 29.66 1005 2 3 0.00 0.00
4:43 pm 16:43 Cloudy with Light Rain 48 8.9 46 7.8 93 93 N 17 28 29.67 1005 2 3 0.05 1.27
4:52 pm 16:52 Cloudy with Rain 48 8.9 46 7.8 93 93 N 18 30 29.66 1004 2 3 0.05 1.27
5:42 pm 17:42 Cloudy with Light Rain 47 8.3 45 7.2 93 93 N 16 26 29.71 1006 2 2 0.02 0.51
5:52 pm 17:52 Cloudy with Light Rain 47 8.3 44 6.7 90 90 N 15 24 29.70 1006 2 3 0.03 0.76
6:52 pm 18:52 Cloudy with Light Rain 47 8.3 44 6.7 90 90 N 15 24 29.71 1006 3 4 0.02 0.51
7:52 pm 19:52 Cloudy with Light Rain 46 7.8 43 6.1 89 89 N 15 24 29.73 1007 3 5 0.02 0.51
8:52 pm 20:52 Cloudy with Light Rain 45 7.2 42 5.6 90 90 N 15 24 29.78 1008 3 5 0.01 0.25
9:07 pm 21:07 Cloudy with Light Rain 45 7.2 41 5 86 86 N 15 24 29.80 1009 3 5 0.00 0.00
9:18 pm 21:18 Cloudy with Light Rain 45 7.2 42 5.6 90 90 N 15 24 29.81 1009 3 5 0.01 0.25
9:52 pm 21:52 Cloudy with Light Rain 45 7.2 41 5 86 86 N 12 19 29.81 1010 5 8 0.03 0.76
10:18 pm 22:18 Cloudy with Light Rain 45 7.2 41 5 86 86 NNW 9 15 29.86 1011 7 11 0.01 0.25
10:52 pm 22:52 Cloudy with Mist and Fog 45 7.2 42 5.6 90 90 NNW 10 17 29.86 1011 6 10 0.01 0.25
11:09 pm 23:09 Cloudy with Mist and Fog 45 7.2 42 5.6 90 90 NNW 8 13 29.89 1012 6 10 0.00 0.00
11:52 pm 23:52 Cloudy 46 7.8 43 6.1 89 89 NNW 13 20 29.89 1012 7 11 0.00 0.00

Powered by AerisWeather